Precipitable_Water
0.20 0.13 0.11 0.11 0.12 0.14 0.15 0.15 0.16 0.15 0.15 0.15 0.15 0.14 0.13 0.14 0.16 0.18 0.20 0.22 0.25 0.20 0.19 0.20 0.20 0.20 0.21 0.22 0.23 0.24 0.24 0.24 0.24 0.24 0.24 0.25 0.26 0.26 0.27 0.28 0.28 0.29 0.29 0.31 0.31 0.31 0.31 0.31 0.32 0.32 0.32 0.31 0.30 0.30 0.30 0.30 0.29 0.29 0.28 0.28 0.27 0.28 0.29 0.29 0.30 0.30 0.28 0.27 0.26 0.26 0.26 0.26 0.26 0.28 0.28 0.29 0.29 0.27 0.27 0.26 0.27 0.26 0.25 0.25 0.24 0.24
0.18 0.12 0.12 0.14 0.15 0.16 0.16 0.18 0.18 0.18 0.18 0.16 0.16 0.15 0.15 0.16 0.15 0.19 0.19 0.23 0.26 0.20 0.18 0.20 0.20 0.20 0.21 0.22 0.23 0.24 0.23 0.22 0.23 0.23 0.23 0.24 0.26 0.26 0.27 0.27 0.28 0.29 0.30 0.30 0.29 0.29 0.30 0.30 0.30 0.31 0.31 0.30 0.29 0.29 0.29 0.28 0.28 0.28 0.28 0.28 0.27 0.27 0.27 0.28 0.29 0.29 0.27 0.26 0.26 0.25 0.25 0.25 0.25 0.27 0.27 0.26 0.26 0.24 0.24 0.24 0.24 0.24 0.24 0.23 0.23 0.24
0.13 0.11 0.15 0.17 0.19 0.20 0.19 0.19 0.20 0.18 0.17 0.17 0.15 0.15 0.15 0.16 0.18 0.21 0.21 0.23 0.23 0.21 0.18 0.20 0.19 0.19 0.21 0.22 0.23 0.23 0.23 0.24 0.24 0.24 0.24 0.24 0.24 0.25 0.26 0.26 0.26 0.27 0.27 0.27 0.27 0.28 0.28 0.29 0.29 0.30 0.30 0.30 0.30 0.29 0.29 0.28 0.28 0.27 0.27 0.27 0.27 0.26 0.27 0.27 0.27 0.27 0.26 0.26 0.26 0.26 0.26 0.27 0.27 0.28 0.27 0.25 0.26 0.25 0.25 0.24 0.25 0.24 0.24 0.24 0.24 0.24
0.10 0.15 0.17 0.20 0.20 0.18 0.18 0.18 0.18 0.17 0.17 0.16 0.15 0.14 0.14 0.17 0.15 0.14 0.19 0.22 0.22 0.21 0.18 0.19 0.18 0.19 0.21 0.22 0.22 0.23 0.23 0.23 0.25 0.25 0.25 0.25 0.24 0.24 0.25 0.26 0.26 0.26 0.26 0.26 0.26 0.27 0.27 0.28 0.28 0.29 0.29 0.29 0.29 0.29 0.28 0.27 0.27 0.27 0.26 0.26 0.26 0.26 0.26 0.27 0.27 0.27 0.26 0.27 0.27 0.28 0.28 0.29 0.29 0.28 0.27 0.26 0.26 0.25 0.25 0.25 0.25 0.24 0.25 0.24 0.24 0.25
0.11 0.15 0.19 0.19 0.18 0.17 0.15 0.16 0.16 0.15 0.14 0.16 0.15 0.15 0.14 0.14 0.16 0.16 0.16 0.20 0.21 0.21 0.21 0.19 0.18 0.17 0.19 0.18 0.19 0.22 0.23 0.23 0.24 0.24 0.25 0.26 0.26 0.26 0.26 0.26 0.27 0.26 0.26 0.26 0.26 0.27 0.27 0.27 0.28 0.28 0.28 0.28 0.28 0.28 0.27 0.27 0.26 0.26 0.26 0.26 0.26 0.26 0.26 0.26 0.26 0.26 0.26 0.27 0.27 0.27 0.27 0.27 0.27 0.27 0.27 0.26 0.25 0.25 0.25 0.25 0.24 0.24 0.25 0.24 0.24 0.25
0.13 0.17 0.20 0.18 0.17 0.17 0.15 0.14 0.15 0.15 0.12 0.13 0.15 0.15 0.16 0.16 0.16 0.17 0.19 0.18 0.16 0.15 0.19 0.18 0.13 0.13 0.17 0.18 0.18 0.20 0.21 0.21 0.23 0.23 0.23 0.24 0.25 0.25 0.25 0.25 0.26 0.27 0.27 0.27 0.27 0.27 0.27 0.28 0.28 0.28 0.28 0.28 0.27 0.27 0.27 0.28 0.27 0.27 0.26 0.26 0.25 0.26 0.26 0.25 0.26 0.25 0.26 0.26 0.26 0.26 0.25 0.25 0.25 0.24 0.24 0.24 0.23 0.23 0.23 0.23 0.23 0.23 0.23 0.22 0.22 0.23
0.15 0.19 0.19 0.17 0.16 0.16 0.15 0.14 0.16 0.17 0.13 0.12 0.14 0.18 0.18 0.17 0.17 0.17 0.17 0.17 0.13 0.12 0.16 0.20 0.13 0.11 0.16 0.16 0.18 0.19 0.20 0.20 0.22 0.22 0.23 0.24 0.24 0.25 0.25 0.26 0.26 0.26 0.27 0.27 0.28 0.28 0.28 0.28 0.28 0.28 0.28 0.27 0.27 0.27 0.28 0.28 0.27 0.27 0.26 0.26 0.25 0.25 0.25 0.25 0.25 0.25 0.25 0.25 0.25 0.25 0.25 0.24 0.24 0.23 0.23 0.23 0.22 0.22 0.21 0.21 0.20 0.20 0.20 0.20 0.20 0.19
0.18 0.18 0.17 0.18 0.15 0.15 0.14 0.14 0.17 0.18 0.15 0.13 0.19 0.19 0.19 0.18 0.17 0.17 0.17 0.17 0.16 0.18 0.19 0.19 0.17 0.13 0.12 0.15 0.19 0.20 0.19 0.19 0.20 0.22 0.23 0.24 0.24 0.25 0.26 0.27 0.27 0.27 0.28 0.27 0.27 0.28 0.28 0.28 0.28 0.28 0.28 0.28 0.28 0.28 0.28 0.28 0.27 0.26 0.26 0.25 0.25 0.25 0.25 0.24 0.24 0.24 0.24 0.23 0.24 0.24 0.23 0.22 0.21 0.21 0.20 0.19 0.18 0.18 0.18 0.17 0.17 0.17 0.17 0.18 0.18 0.16
0.16 0.15 0.15 0.15 0.16 0.15 0.14 0.16 0.18 0.20 0.16 0.16 0.20 0.21 0.19 0.19 0.18 0.18 0.17 0.17 0.17 0.15 0.13 0.15 0.18 0.14 0.13 0.16 0.19 0.20 0.17 0.18 0.20 0.22 0.23 0.24 0.25 0.26 0.27 0.27 0.28 0.28 0.28 0.27 0.27 0.27 0.28 0.28 0.29 0.28 0.28 0.28 0.28 0.27 0.27 0.27 0.27 0.26 0.26 0.25 0.25 0.24 0.24 0.24 0.23 0.23 0.22 0.22 0.22 0.22 0.21 0.19 0.18 0.18 0.18 0.17 0.16 0.16 0.15 0.15 0.15 0.15 0.16 0.16 0.15 0.14
0.17 0.18 0.19 0.19 0.16 0.14 0.17 0.19 0.19 0.20 0.15 0.19 0.21 0.21 0.20 0.19 0.19 0.18 0.16 0.16 0.16 0.14 0.10 0.14 0.16 0.12 0.12 0.16 0.17 0.20 0.19 0.19 0.21 0.23 0.24 0.25 0.26 0.26 0.26 0.27 0.27 0.28 0.28 0.28 0.28 0.28 0.28 0.29 0.29 0.29 0.29 0.29 0.28 0.28 0.27 0.27 0.27 0.26 0.25 0.24 0.23 0.23 0.23 0.22 0.22 0.21 0.20 0.20 0.20 0.19 0.18 0.16 0.16 0.16 0.15 0.15 0.14 0.13 0.13 0.12 0.13 0.13 0.13 0.13 0.12 0.12
0.19 0.27 0.28 0.21 0.16 0.17 0.18 0.19 0.20 0.19 0.19 0.22 0.21 0.18 0.17 0.17 0.16 0.17 0.17 0.16 0.14 0.11 0.11 0.15 0.17 0.15 0.11 0.15 0.17 0.17 0.18 0.20 0.21 0.22 0.24 0.25 0.26 0.26 0.26 0.27 0.27 0.27 0.28 0.28 0.29 0.29 0.30 0.31 0.31 0.30 0.29 0.28 0.28 0.27 0.26 0.26 0.26 0.25 0.23 0.22 0.21 0.21 0.21 0.20 0.19 0.19 0.18 0.17 0.17 0.17 0.16 0.15 0.14 0.14 0.13 0.12 0.11 0.11 0.10 0.10 0.11 0.11 0.11 0.11 0.10 0.10
0.20 0.22 0.21 0.20 0.23 0.20 0.20 0.17 0.21 0.22 0.21 0.20 0.17 0.15 0.14 0.13 0.15 0.14 0.14 0.16 0.11 0.09 0.13 0.16 0.16 0.17 0.11 0.14 0.18 0.20 0.23 0.23 0.22 0.22 0.23 0.24 0.25 0.27 0.27 0.28 0.29 0.29 0.30 0.30 0.30 0.30 0.30 0.30 0.30 0.30 0.28 0.27 0.26 0.26 0.25 0.24 0.24 0.23 0.21 0.21 0.19 0.19 0.18 0.18 0.17 0.16 0.15 0.15 0.15 0.15 0.13 0.12 0.11 0.11 0.10 0.09 0.09 0.09 0.09 0.09 0.10 0.10 0.10 0.10 0.09 0.09
0.14 0.15 0.18 0.21 0.22 0.18 0.16 0.14 0.16 0.18 0.19 0.17 0.15 0.15 0.11 0.09 0.10 0.08 0.10 0.08 0.09 0.09 0.14 0.15 0.16 0.14 0.14 0.17 0.20 0.23 0.24 0.25 0.26 0.26 0.26 0.27 0.27 0.28 0.29 0.30 0.30 0.31 0.31 0.31 0.30 0.30 0.29 0.29 0.28 0.27 0.26 0.25 0.24 0.23 0.23 0.22 0.21 0.21 0.19 0.18 0.17 0.16 0.16 0.16 0.15 0.14 0.13 0.12 0.12 0.11 0.10 0.09 0.10 0.10 0.09 0.09 0.09 0.09 0.09 0.09 0.09 0.09 0.09 0.09 0.09 0.08
0.09 0.15 0.15 0.15 0.17 0.20 0.18 0.13 0.13 0.14 0.16 0.15 0.14 0.13 0.11 0.09 0.08 0.07 0.09 0.10 0.10 0.13 0.15 0.16 0.19 0.15 0.18 0.21 0.24 0.24 0.25 0.26 0.27 0.28 0.29 0.29 0.29 0.29 0.30 0.30 0.30 0.31 0.30 0.30 0.29 0.28 0.28 0.27 0.26 0.25 0.24 0.23 0.22 0.22 0.21 0.20 0.19 0.18 0.16 0.15 0.15 0.14 0.13 0.13 0.12 0.11 0.10 0.10 0.10 0.10 0.09 0.09 0.09 0.09 0.09 0.09 0.09 0.09 0.09 0.09 0.09 0.09 0.09 0.09 0.09 0.08
0.07 0.08 0.11 0.14 0.13 0.20 0.19 0.18 0.17 0.16 0.16 0.16 0.18 0.15 0.13 0.12 0.11 0.09 0.10 0.09 0.10 0.12 0.15 0.19 0.16 0.14 0.16 0.18 0.26 0.26 0.27 0.28 0.29 0.29 0.30 0.30 0.30 0.30 0.31 0.30 0.30 0.30 0.30 0.29 0.28 0.27 0.26 0.25 0.24 0.23 0.22 0.21 0.20 0.19 0.18 0.16 0.15 0.14 0.13 0.12 0.12 0.12 0.11 0.10 0.10 0.09 0.09 0.09 0.09 0.09 0.09 0.09 0.10 0.10 0.09 0.09 0.09 0.09 0.09 0.09 0.09 0.08 0.09 0.09 0.08 0.08
0.10 0.10 0.15 0.19 0.20 0.21 0.18 0.22 0.23 0.20 0.18 0.20 0.19 0.20 0.17 0.16 0.19 0.14 0.15 0.15 0.15 0.15 0.15 0.17 0.17 0.20 0.20 0.26 0.28 0.29 0.28 0.28 0.29 0.30 0.30 0.29 0.30 0.30 0.29 0.28 0.28 0.28 0.28 0.27 0.26 0.25 0.24 0.23 0.22 0.20 0.19 0.18 0.17 0.16 0.15 0.14 0.13 0.13 0.12 0.11 0.11 0.10 0.09 0.09 0.09 0.09 0.09 0.09 0.09 0.09 0.09 0.09 0.09 0.09 0.09 0.09 0.09 0.09 0.09 0.09 0.08 0.08 0.08 0.08 0.08 0.08
0.13 0.12 0.18 0.20 0.23 0.21 0.22 0.24 0.23 0.25 0.15 0.20 0.21 0.19 0.21 0.25 0.23 0.19 0.19 0.20 0.19 0.18 0.15 0.20 0.19 0.21 0.25 0.26 0.27 0.27 0.27 0.28 0.28 0.28 0.28 0.27 0.27 0.27 0.26 0.25 0.27 0.27 0.26 0.26 0.24 0.23 0.22 0.20 0.19 0.18 0.17 0.16 0.15 0.14 0.13 0.12 0.11 0.11 0.10 0.09 0.09 0.09 0.09 0.09 0.09 0.09 0.09 0.09 0.09 0.09 0.09 0.09 0.09 0.09 0.09 0.08 0.08 0.08 0.08 0.08 0.08 0.08 0.08 0.08 0.08 0.08
0.15 0.16 0.21 0.21 0.20 0.25 0.27 0.27 0.27 0.27 0.27 0.24 0.20 0.23 0.27 0.28 0.25 0.21 0.16 0.18 0.17 0.14 0.15 0.19 0.17 0.17 0.18 0.15 0.24 0.24 0.23 0.24 0.25 0.26 0.26 0.26 0.26 0.25 0.24 0.24 0.25 0.25 0.25 0.24 0.22 0.20 0.19 0.17 0.16 0.15 0.15 0.14 0.13 0.12 0.10 0.10 0.10 0.10 0.09 0.09 0.09 0.09 0.08 0.08 0.09 0.09 0.09 0.09 0.09 0.09 0.09 0.08 0.08 0.08 0.08 0.08 0.08 0.08 0.08 0.07 0.07 0.07 0.07 0.07 0.07 0.07
0.23 0.16 0.20 0.22 0.23 0.24 0.26 0.27 0.25 0.28 0.29 0.24 0.23 0.29 0.22 0.18 0.17 0.21 0.18 0.13 0.13 0.12 0.13 0.14 0.15 0.15 0.17 0.16 0.20 0.20 0.21 0.22 0.23 0.24 0.25 0.23 0.24 0.23 0.23 0.22 0.24 0.24 0.22 0.21 0.18 0.16 0.15 0.14 0.13 0.13 0.13 0.12 0.11 0.10 0.10 0.10 0.10 0.09 0.09 0.09 0.09 0.09 0.09 0.08 0.08 0.08 0.08 0.08 0.08 0.08 0.08 0.08 0.07 0.07 0.07 0.07 0.07 0.07 0.07 0.07 0.07 0.06 0.06 0.07 0.07 0.07
0.23 0.16 0.17 0.22 0.21 0.22 0.23 0.22 0.17 0.20 0.25 0.25 0.26 0.22 0.24 0.20 0.16 0.14 0.15 0.15 0.15 0.10 0.11 0.11 0.13 0.13 0.18 0.19 0.20 0.20 0.22 0.22 0.22 0.22 0.22 0.22 0.22 0.22 0.21 0.20 0.20 0.20 0.18 0.16 0.14 0.13 0.13 0.12 0.12 0.12 0.12 0.11 0.10 0.09 0.09 0.09 0.10 0.09 0.09 0.09 0.08 0.08 0.08 0.08 0.08 0.08 0.08 0.08 0.08 0.07 0.07 0.07 0.07 0.07 0.07 0.06 0.06 0.06 0.06 0.06 0.06 0.06 0.06 0.06 0.06 0.06
0.19 0.20 0.13 0.17 0.20 0.19 0.15 0.18 0.16 0.17 0.15 0.16 0.16 0.15 0.17 0.17 0.19 0.17 0.16 0.14 0.13 0.12 0.11 0.11 0.10 0.15 0.18 0.22 0.21 0.21 0.22 0.22 0.21 0.20 0.20 0.20 0.20 0.20 0.19 0.18 0.17 0.16 0.15 0.14 0.13 0.12 0.12 0.12 0.12 0.11 0.11 0.10 0.09 0.09 0.09 0.09 0.09 0.09 0.08 0.08 0.08 0.07 0.07 0.07 0.07 0.07 0.07 0.07 0.07 0.07 0.07 0.06 0.06 0.06 0.06 0.06 0.06 0.06 0.06 0.06 0.06 0.06 0.06 0.06 0.06 0.06
0.18 0.18 0.13 0.14 0.14 0.13 0.15 0.19 0.19 0.18 0.18 0.16 0.16 0.15 0.15 0.13 0.12 0.10 0.09 0.16 0.15 0.13 0.11 0.11 0.10 0.15 0.19 0.22 0.21 0.21 0.21 0.20 0.20 0.19 0.19 0.18 0.17 0.17 0.16 0.16 0.16 0.15 0.14 0.12 0.12 0.11 0.11 0.11 0.11 0.11 0.10 0.09 0.09 0.09 0.08 0.08 0.08 0.08 0.08 0.08 0.07 0.07 0.07 0.07 0.07 0.07 0.07 0.07 0.07 0.06 0.06 0.06 0.06 0.06 0.06 0.06 0.05 0.05 0.05 0.05 0.05 0.05 0.05 0.05 0.05 0.05
0.21 0.17 0.12 0.09 0.09 0.10 0.13 0.16 0.18 0.18 0.17 0.15 0.15 0.13 0.14 0.13 0.12 0.10 0.07 0.10 0.13 0.13 0.14 0.13 0.11 0.11 0.18 0.20 0.20 0.19 0.18 0.18 0.18 0.18 0.16 0.16 0.16 0.16 0.16 0.16 0.15 0.13 0.12 0.11 0.11 0.11 0.11 0.11 0.10 0.10 0.09 0.09 0.08 0.08 0.08 0.08 0.08 0.08 0.08 0.07 0.07 0.07 0.07 0.07 0.06 0.07 0.06 0.06 0.06 0.06 0.06 0.06 0.06 0.06 0.05 0.05 0.05 0.05 0.05 0.05 0.05 0.05 0.05 0.05 0.05 0.05
0.19 0.10 0.07 0.07 0.09 0.11 0.14 0.16 0.17 0.17 0.16 0.13 0.13 0.14 0.12 0.10 0.11 0.10 0.11 0.12 0.10 0.10 0.10 0.10 0.08 0.10 0.16 0.18 0.18 0.18 0.17 0.17 0.17 0.16 0.16 0.16 0.16 0.16 0.15 0.14 0.13 0.11 0.11 0.11 0.11 0.11 0.10 0.10 0.09 0.09 0.08 0.08 0.08 0.08 0.08 0.08 0.08 0.07 0.07 0.07 0.07 0.06 0.06 0.06 0.06 0.06 0.06 0.06 0.06 0.06 0.06 0.05 0.05 0.05 0.05 0.05 0.05 0.05 0.05 0.05 0.05 0.05 0.05 0.05 0.05 0.05
0.09 0.09 0.08 0.05 0.05 0.07 0.08 0.10 0.12 0.14 0.14 0.11 0.11 0.12 0.12 0.12 0.13 0.13 0.13 0.13 0.09 0.10 0.10 0.08 0.06 0.10 0.15 0.17 0.16 0.16 0.15 0.15 0.15 0.16 0.16 0.15 0.15 0.14 0.13 0.12 0.11 0.11 0.10 0.10 0.10 0.10 0.09 0.09 0.08 0.07 0.07 0.07 0.08 0.08 0.08 0.08 0.07 0.07 0.07 0.07 0.06 0.06 0.06 0.06 0.06 0.06 0.06 0.06 0.06 0.05 0.05 0.05 0.05 0.05 0.05 0.05 0.05 0.05 0.05 0.05 0.05 0.05 0.05 0.05 0.05 0.05
0.10 0.09 0.08 0.05 0.04 0.03 0.03 0.04 0.05 0.07 0.09 0.12 0.12 0.12 0.12 0.12 0.12 0.11 0.08 0.10 0.08 0.10 0.09 0.07 0.08 0.12 0.14 0.15 0.14 0.14 0.14 0.15 0.16 0.16 0.15 0.15 0.14 0.13 0.12 0.11 0.10 0.10 0.10 0.09 0.09 0.09 0.09 0.08 0.08 0.07 0.07 0.08 0.08 0.08 0.08 0.07 0.07 0.07 0.07 0.06 0.06 0.06 0.06 0.06 0.06 0.06 0.06 0.05 0.05 0.05 0.05 0.05 0.05 0.05 0.05 0.05 0.05 0.05 0.05 0.05 0.05 0.05 0.05 0.05 0.05 0.05
0.10 0.11 0.09 0.08 0.06 0.05 0.06 0.08 0.12 0.13 0.11 0.09 0.10 0.11 0.11 0.13 0.13 0.11 0.11 0.09 0.07 0.09 0.08 0.10 0.10 0.10 0.11 0.12 0.12 0.13 0.14 0.14 0.14 0.14 0.14 0.13 0.13 0.12 0.11 0.10 0.10 0.10 0.09 0.09 0.09 0.09 0.08 0.08 0.07 0.08 0.08 0.08 0.08 0.07 0.07 0.07 0.07 0.06 0.06 0.06 0.06 0.06 0.06 0.06 0.06 0.05 0.05 0.05 0.05 0.05 0.05 0.05 0.05 0.05 0.05 0.05 0.05 0.05 0.05 0.05 0.05 0.05 0.05 0.05 0.05 0.05
0.10 0.07 0.08 0.08 0.07 0.08 0.09 0.09 0.11 0.11 0.09 0.10 0.10 0.10 0.12 0.12 0.12 0.11 0.09 0.08 0.11 0.09 0.07 0.11 0.11 0.09 0.09 0.11 0.12 0.13 0.13 0.14 0.13 0.13 0.13 0.13 0.12 0.10 0.09 0.09 0.10 0.09 0.09 0.09 0.09 0.08 0.08 0.07 0.07 0.07 0.07 0.07 0.07 0.07 0.07 0.07 0.06 0.06 0.06 0.06 0.06 0.06 0.06 0.06 0.05 0.05 0.05 0.05 0.05 0.05 0.05 0.05 0.05 0.05 0.05 0.05 0.05 0.05 0.05 0.05 0.05 0.05 0.05 0.05 0.05 0.05
0.08 0.06 0.07 0.08 0.07 0.08 0.09 0.09 0.10 0.10 0.10 0.10 0.11 0.11 0.11 0.11 0.11 0.10 0.10 0.11 0.11 0.09 0.07 0.09 0.10 0.08 0.09 0.11 0.12 0.13 0.13 0.13 0.13 0.13 0.13 0.11 0.10 0.09 0.09 0.09 0.09 0.08 0.09 0.08 0.08 0.08 0.07 0.07 0.07 0.07 0.07 0.06 0.06 0.06 0.07 0.06 0.06 0.06 0.06 0.06 0.06 0.05 0.05 0.05 0.05 0.05 0.05 0.05 0.05 0.05 0.05 0.05 0.05 0.05 0.05 0.05 0.05 0.05 0.05 0.05 0.05 0.05 0.05 0.05 0.05 0.05
0.09 0.06 0.08 0.08 0.07 0.08 0.08 0.09 0.10 0.10 0.10 0.10 0.11 0.11 0.11 0.11 0.11 0.11 0.11 0.11 0.11 0.09 0.10 0.09 0.09 0.09 0.11 0.12 0.12 0.13 0.14 0.13 0.13 0.13 0.11 0.10 0.09 0.09 0.09 0.08 0.08 0.08 0.08 0.08 0.08 0.07 0.06 0.06 0.07 0.07 0.06 0.06 0.07 0.06 0.06 0.06 0.06 0.06 0.05 0.05 0.05 0.05 0.05 0.05 0.05 0.05 0.05 0.05 0.05 0.05 0.05 0.05 0.05 0.05 0.05 0.05 0.05 0.05 0.05 0.05 0.05 0.05 0.05 0.05 0.05 0.05
0.07 0.06 0.08 0.07 0.06 0.06 0.08 0.10 0.10 0.10 0.09 0.09 0.11 0.11 0.11 0.11 0.11 0.11 0.11 0.11 0.11 0.09 0.09 0.09 0.09 0.09 0.12 0.13 0.13 0.14 0.14 0.13 0.13 0.11 0.09 0.09 0.09 0.09 0.08 0.08 0.08 0.08 0.08 0.08 0.07 0.07 0.06 0.07 0.07 0.07 0.06 0.06 0.06 0.06 0.06 0.06 0.06 0.05 0.05 0.05 0.05 0.05 0.05 0.05 0.05 0.05 0.05 0.05 0.05 0.05 0.05 0.05 0.05 0.05 0.05 0.05 0.05 0.05 0.05 0.05 0.05 0.05 0.05 0.05 0.05 0.05
0.07 0.06 0.08 0.07 0.05 0.05 0.08 0.08 0.08 0.09 0.10 0.09 0.09 0.09 0.10 0.10 0.09 0.10 0.09 0.11 0.09 0.08 0.09 0.09 0.08 0.09 0.11 0.13 0.13 0.13 0.13 0.12 0.11 0.10 0.09 0.09 0.09 0.09 0.08 0.08 0.08 0.08 0.08 0.07 0.07 0.06 0.06 0.06 0.06 0.06 0.06 0.06 0.06 0.06 0.06 0.06 0.05 0.05 0.05 0.05 0.05 0.05 0.05 0.05 0.05 0.05 0.05 0.05 0.05 0.05 0.05 0.05 0.05 0.05 0.05 0.05 0.05 0.05 0.05 0.05 0.05 0.05 0.05 0.05 0.05 0.05
0.07 0.07 0.06 0.06 0.05 0.05 0.07 0.08 0.07 0.08 0.08 0.08 0.07 0.09 0.10 0.11 0.11 0.11 0.11 0.11 0.10 0.10 0.08 0.07 0.08 0.10 0.11 0.12 0.11 0.11 0.12 0.11 0.10 0.09 0.08 0.08 0.08 0.08 0.08 0.08 0.08 0.08 0.07 0.07 0.06 0.06 0.06 0.06 0.06 0.06 0.06 0.06 0.06 0.06 0.06 0.05 0.05 0.05 0.05 0.05 0.05 0.05 0.05 0.05 0.05 0.05 0.05 0.05 0.05 0.05 0.05 0.05 0.05 0.05 0.05 0.05 0.05 0.05 0.05 0.05 0.05 0.05 0.05 0.05 0.05 0.05
0.08 0.07 0.07 0.08 0.06 0.06 0.07 0.07 0.08 0.07 0.04 0.05 0.10 0.12 0.12 0.10 0.10 0.09 0.08 0.09 0.10 0.11 0.10 0.11 0.10 0.11 0.12 0.12 0.11 0.11 0.11 0.11 0.10 0.09 0.09 0.08 0.08 0.08 0.08 0.08 0.08 0.07 0.07 0.07 0.06 0.06 0.06 0.06 0.06 0.06 0.06 0.06 0.06 0.06 0.05 0.05 0.05 0.05 0.05 0.05 0.05 0.05 0.05 0.05 0.05 0.05 0.05 0.05 0.05 0.05 0.05 0.05 0.05 0.05 0.05 0.05 0.05 0.05 0.05 0.05 0.05 0.05 0.05 0.05 0.05 0.05
0.07 0.07 0.07 0.08 0.07 0.06 0.07 0.07 0.06 0.05 0.05 0.09 0.12 0.14 0.14 0.12 0.12 0.10 0.09 0.10 0.10 0.11 0.11 0.11 0.11 0.11 0.12 0.12 0.12 0.12 0.12 0.11 0.10 0.08 0.08 0.09 0.08 0.08 0.08 0.08 0.07 0.07 0.07 0.06 0.06 0.06 0.06 0.06 0.06 0.06 0.06 0.06 0.06 0.05 0.05 0.05 0.05 0.05 0.05 0.05 0.05 0.05 0.05 0.05 0.05 0.05 0.05 0.05 0.05 0.05 0.05 0.05 0.05 0.05 0.05 0.05 0.05 0.05 0.05 0.05 0.05 0.05 0.05 0.05 0.05 0.06
0.07 0.07 0.07 0.07 0.08 0.08 0.07 0.07 0.05 0.05 0.08 0.11 0.13 0.14 0.14 0.13 0.12 0.10 0.08 0.10 0.10 0.11 0.11 0.10 0.11 0.11 0.12 0.12 0.12 0.12 0.11 0.10 0.09 0.09 0.09 0.09 0.09 0.08 0.08 0.07 0.07 0.07 0.06 0.06 0.06 0.06 0.06 0.06 0.06 0.06 0.06 0.06 0.05 0.05 0.05 0.05 0.05 0.05 0.05 0.05 0.05 0.05 0.05 0.05 0.05 0.05 0.05 0.05 0.05 0.05 0.05 0.05 0.05 0.05 0.05 0.05 0.05 0.05 0.05 0.05 0.05 0.05 0.05 0.06 0.06 0.06
0.08 0.08 0.07 0.07 0.09 0.06 0.07 0.07 0.06 0.07 0.07 0.10 0.10 0.11 0.12 0.09 0.09 0.09 0.06 0.08 0.11 0.11 0.11 0.10 0.11 0.12 0.12 0.12 0.12 0.11 0.10 0.09 0.08 0.08 0.09 0.09 0.08 0.08 0.07 0.07 0.07 0.07 0.06 0.06 0.06 0.06 0.06 0.06 0.06 0.06 0.06 0.05 0.05 0.05 0.05 0.05 0.05 0.05 0.05 0.05 0.05 0.05 0.05 0.05 0.04 0.04 0.05 0.05 0.05 0.05 0.05 0.05 0.05 0.05 0.05 0.05 0.05 0.05 0.05 0.05 0.05 0.05 0.06 0.06 0.06 0.06
0.09 0.07 0.08 0.07 0.08 0.08 0.07 0.06 0.06 0.06 0.05 0.07 0.11 0.13 0.14 0.13 0.13 0.12 0.10 0.08 0.11 0.11 0.12 0.11 0.11 0.11 0.12 0.12 0.11 0.10 0.09 0.07 0.06 0.07 0.09 0.09 0.08 0.08 0.08 0.07 0.07 0.07 0.06 0.06 0.06 0.06 0.06 0.06 0.06 0.06 0.06 0.05 0.05 0.05 0.05 0.05 0.05 0.05 0.05 0.05 0.05 0.04 0.04 0.04 0.04 0.04 0.05 0.05 0.05 0.05 0.05 0.05 0.05 0.05 0.05 0.05 0.05 0.05 0.05 0.05 0.05 0.06 0.06 0.06 0.06 0.06
0.10 0.10 0.09 0.08 0.07 0.08 0.07 0.06 0.06 0.05 0.06 0.09 0.10 0.13 0.14 0.14 0.13 0.13 0.10 0.06 0.10 0.11 0.12 0.12 0.11 0.12 0.12 0.11 0.10 0.09 0.08 0.06 0.06 0.07 0.08 0.08 0.08 0.08 0.07 0.07 0.07 0.06 0.06 0.06 0.06 0.06 0.06 0.06 0.06 0.05 0.05 0.05 0.05 0.05 0.05 0.05 0.05 0.05 0.04 0.04 0.04 0.04 0.04 0.04 0.04 0.05 0.05 0.05 0.05 0.05 0.05 0.05 0.05 0.05 0.05 0.05 0.05 0.05 0.05 0.05 0.05 0.06 0.06 0.06 0.06 0.06
0.08 0.08 0.09 0.08 0.07 0.08 0.07 0.07 0.06 0.07 0.07 0.09 0.12 0.13 0.13 0.14 0.14 0.11 0.05 0.05 0.10 0.12 0.12 0.12 0.12 0.12 0.12 0.11 0.10 0.08 0.07 0.06 0.06 0.07 0.08 0.08 0.07 0.07 0.07 0.07 0.06 0.06 0.06 0.06 0.06 0.06 0.06 0.06 0.06 0.05 0.05 0.05 0.05 0.05 0.05 0.05 0.05 0.05 0.04 0.04 0.04 0.04 0.04 0.04 0.05 0.05 0.05 0.05 0.05 0.05 0.05 0.05 0.05 0.05 0.05 0.05 0.05 0.05 0.06 0.06 0.06 0.06 0.06 0.06 0.06 0.06
0.08 0.08 0.08 0.07 0.07 0.08 0.08 0.07 0.08 0.08 0.11 0.12 0.12 0.13 0.14 0.14 0.12 0.07 0.05 0.07 0.11 0.12 0.13 0.13 0.12 0.12 0.12 0.10 0.09 0.07 0.08 0.08 0.08 0.08 0.08 0.07 0.07 0.07 0.07 0.07 0.06 0.06 0.06 0.06 0.06 0.06 0.06 0.06 0.05 0.05 0.05 0.05 0.05 0.05 0.05 0.05 0.05 0.04 0.04 0.04 0.04 0.04 0.04 0.05 0.05 0.05 0.05 0.05 0.05 0.05 0.05 0.05 0.05 0.05 0.05 0.05 0.05 0.06 0.06 0.06 0.06 0.06 0.06 0.06 0.06 0.06
0.08 0.08 0.09 0.08 0.08 0.07 0.08 0.07 0.07 0.08 0.10 0.12 0.13 0.13 0.14 0.11 0.07 0.06 0.09 0.13 0.12 0.12 0.13 0.13 0.13 0.12 0.11 0.10 0.09 0.08 0.08 0.09 0.08 0.08 0.07 0.07 0.07 0.07 0.07 0.07 0.06 0.06 0.06 0.06 0.06 0.06 0.06 0.05 0.05 0.05 0.05 0.05 0.05 0.05 0.05 0.05 0.05 0.04 0.04 0.04 0.04 0.04 0.05 0.05 0.05 0.05 0.05 0.05 0.05 0.05 0.05 0.05 0.05 0.05 0.05 0.06 0.06 0.06 0.06 0.06 0.06 0.06 0.06 0.06 0.06 0.06
0.08 0.07 0.07 0.07 0.08 0.09 0.08 0.07 0.07 0.06 0.10 0.13 0.13 0.12 0.14 0.09 0.09 0.12 0.12 0.13 0.13 0.13 0.13 0.13 0.13 0.12 0.11 0.09 0.09 0.08 0.08 0.08 0.07 0.07 0.07 0.07 0.07 0.07 0.07 0.06 0.06 0.06 0.05 0.06 0.06 0.06 0.06 0.05 0.05 0.05 0.05 0.05 0.05 0.05 0.05 0.05 0.04 0.04 0.04 0.04 0.04 0.05 0.05 0.05 0.05 0.05 0.05 0.05 0.05 0.05 0.05 0.05 0.05 0.05 0.06 0.06 0.06 0.06 0.06 0.06 0.06 0.06 0.06 0.06 0.06 0.06
0.11 0.07 0.07 0.08 0.09 0.07 0.08 0.07 0.07 0.09 0.11 0.13 0.12 0.10 0.12 0.12 0.13 0.13 0.13 0.11 0.13 0.13 0.13 0.13 0.13 0.12 0.10 0.09 0.08 0.08 0.08 0.07 0.07 0.07 0.07 0.07 0.07 0.07 0.07 0.06 0.06 0.05 0.05 0.06 0.06 0.06 0.06 0.05 0.05 0.05 0.05 0.05 0.05 0.05 0.05 0.05 0.04 0.04 0.04 0.04 0.05 0.05 0.05 0.05 0.05 0.05 0.05 0.05 0.05 0.05 0.05 0.05 0.05 0.06 0.06 0.06 0.06 0.06 0.06 0.06 0.06 0.06 0.06 0.06 0.06 0.06
0.11 0.09 0.09 0.08 0.10 0.09 0.08 0.09 0.11 0.12 0.12 0.13 0.13 0.13 0.14 0.14 0.14 0.14 0.13 0.13 0.12 0.13 0.13 0.13 0.12 0.11 0.10 0.09 0.08 0.08 0.07 0.06 0.06 0.07 0.06 0.06 0.07 0.06 0.06 0.06 0.05 0.05 0.05 0.05 0.05 0.06 0.06 0.05 0.05 0.05 0.05 0.05 0.05 0.05 0.05 0.05 0.04 0.04 0.04 0.04 0.05 0.05 0.05 0.05 0.05 0.05 0.05 0.05 0.05 0.05 0.05 0.05 0.05 0.06 0.06 0.06 0.06 0.06 0.06 0.06 0.06 0.05 0.06 0.06 0.06 0.05
0.12 0.12 0.12 0.11 0.10 0.12 0.12 0.12 0.12 0.13 0.13 0.13 0.14 0.15 0.14 0.14 0.14 0.14 0.13 0.13 0.13 0.13 0.14 0.13 0.12 0.10 0.09 0.09 0.08 0.07 0.06 0.06 0.06 0.06 0.06 0.06 0.06 0.06 0.06 0.06 0.05 0.05 0.05 0.05 0.05 0.06 0.06 0.05 0.05 0.05 0.05 0.05 0.05 0.05 0.05 0.05 0.05 0.04 0.04 0.05 0.05 0.05 0.05 0.05 0.04 0.04 0.04 0.05 0.05 0.05 0.05 0.05 0.05 0.06 0.06 0.06 0.06 0.06 0.06 0.06 0.06 0.05 0.05 0.05 0.05 0.05
0.12 0.13 0.12 0.10 0.11 0.10 0.08 0.12 0.12 0.12 0.13 0.13 0.14 0.15 0.15 0.15 0.14 0.14 0.14 0.13 0.14 0.14 0.13 0.13 0.11 0.10 0.09 0.09 0.08 0.07 0.06 0.06 0.06 0.06 0.06 0.06 0.06 0.06 0.06 0.05 0.05 0.05 0.05 0.05 0.06 0.06 0.05 0.05 0.05 0.05 0.05 0.05 0.05 0.05 0.05 0.05 0.05 0.05 0.05 0.05 0.05 0.05 0.05 0.05 0.04 0.04 0.04 0.04 0.05 0.05 0.05 0.05 0.05 0.05 0.06 0.06 0.06 0.06 0.06 0.06 0.06 0.05 0.05 0.05 0.05 0.05
0.09 0.14 0.11 0.11 0.11 0.09 0.09 0.11 0.12 0.13 0.14 0.14 0.14 0.14 0.14 0.14 0.14 0.15 0.14 0.14 0.14 0.14 0.13 0.12 0.11 0.10 0.09 0.08 0.07 0.07 0.06 0.06 0.06 0.06 0.06 0.06 0.06 0.06 0.06 0.05 0.05 0.05 0.05 0.06 0.06 0.06 0.05 0.05 0.05 0.05 0.05 0.05 0.05 0.05 0.05 0.05 0.05 0.05 0.05 0.05 0.05 0.05 0.05 0.05 0.04 0.04 0.04 0.04 0.05 0.05 0.04 0.05 0.05 0.05 0.06 0.06 0.06 0.06 0.06 0.06 0.06 0.06 0.05 0.05 0.05 0.05
0.11 0.13 0.09 0.11 0.10 0.10 0.12 0.12 0.13 0.13 0.13 0.14 0.14 0.15 0.15 0.15 0.15 0.14 0.14 0.14 0.14 0.13 0.13 0.12 0.11 0.10 0.09 0.08 0.07 0.07 0.06 0.06 0.06 0.06 0.06 0.06 0.06 0.06 0.05 0.05 0.05 0.05 0.05 0.05 0.06 0.06 0.05 0.05 0.05 0.05 0.05 0.05 0.05 0.05 0.05 0.05 0.05 0.05 0.05 0.05 0.05 0.05 0.05 0.04 0.04 0.04 0.04 0.05 0.05 0.05 0.04 0.04 0.05 0.05 0.06 0.06 0.06 0.06 0.06 0.06 0.06 0.06 0.06 0.06 0.06 0.06
0.11 0.10 0.11 0.11 0.09 0.09 0.09 0.10 0.12 0.11 0.11 0.13 0.14 0.15 0.15 0.15 0.15 0.15 0.14 0.13 0.13 0.13 0.12 0.11 0.10 0.10 0.09 0.08 0.07 0.07 0.06 0.06 0.06 0.06 0.06 0.06 0.06 0.06 0.05 0.05 0.05 0.05 0.05 0.06 0.06 0.06 0.05 0.05 0.05 0.05 0.05 0.05 0.05 0.05 0.05 0.05 0.05 0.05 0.05 0.05 0.05 0.05 0.05 0.04 0.04 0.04 0.04 0.04 0.05 0.05 0.04 0.04 0.05 0.05 0.05 0.06 0.06 0.06 0.06 0.06 0.06 0.06 0.06 0.06 0.06 0.06
0.10 0.10 0.11 0.10 0.09 0.09 0.11 0.13 0.14 0.14 0.14 0.14 0.15 0.16 0.16 0.16 0.15 0.14 0.13 0.13 0.13 0.13 0.12 0.10 0.09 0.09 0.08 0.08 0.07 0.07 0.07 0.06 0.06 0.06 0.06 0.06 0.05 0.06 0.05 0.05 0.05 0.05 0.05 0.05 0.05 0.05 0.05 0.05 0.05 0.05 0.05 0.05 0.05 0.05 0.05 0.05 0.05 0.05 0.05 0.05 0.05 0.05 0.05 0.04 0.04 0.04 0.04 0.04 0.04 0.05 0.05 0.04 0.04 0.05 0.05 0.05 0.06 0.06 0.06 0.06 0.06 0.06 0.06 0.06 0.06 0.06
Wind_Speed
17 18 18 18 18 18 18 19 20 19 19 20 21 21 22 21 20 19 19 20 20 19 19 19 18 18 19 20 20 20 19 19 19 19 19 20 20 20 19 19 19 19 19 19 19 19 20 20 21 21 21 22 22 23 24 24 25 25 26 27 28 29 29 30 31 31 32 33 33 34 34 35 36 36 36 37 37 38 39 40 40 41 42 42 43 43
17 18 17 17 18 18 18 18 19 19 19 20 21 21 21 21 20 19 19 21 21 20 19 19 18 18 19 19 19 20 19 19 19 19 19 19 19 19 19 19 19 19 19 19 19 19 20 20 21 21 22 22 23 23 24 24 25 26 27 27 28 29 30 30 31 32 33 33 34 35 35 36 36 37 37 38 38 39 40 41 41 42 43 43 44 44
16 16 16 17 17 17 17 18 18 19 19 19 20 21 21 20 19 19 20 20 21 20 20 19 18 19 19 19 19 19 19 20 20 19 19 19 19 19 19 19 19 19 19 19 19 19 20 20 21 21 22 23 23 24 24 25 26 27 27 28 29 30 31 31 32 33 34 35 35 36 36 37 37 38 38 39 40 41 41 42 42 43 44 44 45 46
16 16 16 17 17 18 17 17 18 18 19 19 20 21 21 19 19 20 20 19 20 20 20 19 19 20 20 19 19 19 19 19 19 19 19 19 19 19 19 19 19 19 19 19 19 20 20 21 21 21 22 23 24 25 25 26 27 28 29 30 30 31 32 32 33 34 35 36 36 37 37 38 38 39 40 41 41 42 43 43 44 45 45 46 46 47
16 15 16 17 17 17 18 17 18 19 19 19 20 21 21 20 21 20 19 18 18 19 19 18 19 21 21 20 20 20 19 19 19 19 19 19 19 19 20 20 20 20 20 20 20 20 21 21 22 22 23 24 25 26 27 28 28 29 30 31 31 32 33 34 35 36 36 37 37 38 38 39 40 41 42 42 43 44 44 45 46 46 47 47 47 48
15 15 17 17 16 17 18 18 19 20 20 20 19 21 21 21 19 18 18 19 18 20 21 20 21 21 21 21 21 21 20 20 20 20 20 20 21 21 21 21 21 20 20 21 21 21 22 22 23 24 24 25 26 27 28 29 30 30 31 32 33 34 34 35 36 37 38 38 39 39 40 40 41 42 43 44 45 45 46 46 47 47 48 48 48 49
15 16 17 17 18 18 19 19 19 20 21 20 19 20 20 19 18 17 18 20 20 21 21 23 23 22 21 23 23 22 21 21 21 21 21 22 22 22 22 22 22 22 22 22 22 22 23 24 25 25 26 27 28 29 30 30 31 32 33 34 35 35 36 37 38 39 39 40 40 40 41 41 42 43 44 45 46 46 47 48 48 48 49 49 49 49
17 17 17 18 19 19 19 18 19 20 20 20 19 20 19 18 18 18 19 21 21 21 21 23 24 24 24 24 23 23 22 22 22 22 22 22 22 22 22 22 22 22 23 23 23 24 24 25 26 27 27 28 29 30 31 32 33 33 34 35 36 37 37 38 39 40 40 41 41 41 42 42 43 44 45 45 46 47 48 48 48 49 49 49 49 50
18 18 19 20 19 18 18 19 19 20 20 19 19 20 20 19 20 20 21 22 22 22 23 22 23 24 24 21 22 23 23 23 22 22 22 22 22 22 22 22 23 23 23 24 24 25 26 26 27 28 29 30 31 31 32 33 34 35 36 37 37 38 38 39 40 40 41 41 42 42 43 43 44 45 45 46 47 47 48 48 49 49 50 50 51 51
18 18 19 19 18 18 18 18 19 19 19 18 18 19 18 19 20 20 22 22 21 23 24 22 22 23 22 20 21 23 24 23 22 21 22 22 22 22 22 23 23 24 24 24 25 26 26 27 28 29 30 31 32 32 33 34 35 36 37 37 38 39 39 40 41 41 42 42 42 43 43 44 45 45 46 47 47 48 48 49 50 50 50 51 52 53
18 18 17 17 17 17 17 17 17 18 18 17 18 18 18 19 19 20 20 19 20 21 21 19 20 22 21 19 19 20 21 21 21 21 21 21 22 22 22 23 23 24 24 25 25 26 27 28 29 30 30 31 32 33 34 35 36 37 38 39 39 40 40 41 41 42 42 43 43 43 44 45 46 46 47 48 48 49 49 50 51 51 52 53 53 54
17 15 15 15 16 17 17 17 16 16 16 17 19 19 20 19 18 18 17 16 19 19 17 17 18 20 21 19 18 19 19 19 19 20 20 21 21 22 22 23 24 24 25 26 26 27 28 29 30 31 32 33 34 35 36 37 38 38 39 40 40 41 41 42 42 43 43 44 44 45 46 47 47 47 48 49 50 50 51 51 52 53 53 54 55 56
15 13 14 15 16 17 18 17 16 15 17 18 19 18 19 18 17 18 17 16 18 17 16 17 17 18 19 19 19 18 18 18 18 18 19 20 21 22 23 24 24 25 26 27 28 28 29 30 31 32 33 34 35 36 37 38 39 39 40 41 41 42 42 42 43 44 44 45 45 46 47 47 48 48 49 50 51 52 52 53 53 54 55 56 57 57
14 13 14 15 16 17 18 17 16 17 18 18 17 17 18 18 19 20 18 18 18 17 16 18 18 19 19 18 19 18 17 18 17 18 19 20 21 22 23 24 25 26 26 27 28 29 30 30 31 33 34 35 36 37 38 39 40 40 41 42 42 43 43 44 44 45 46 46 46 47 48 49 49 50 51 51 52 53 54 54 55 56 57 58 58 59
15 14 15 17 17 17 17 17 18 19 19 17 17 18 18 18 19 20 19 19 19 19 19 19 19 19 18 18 18 17 17 18 18 18 19 19 21 22 23 24 25 26 27 27 28 29 30 31 32 34 35 36 37 38 40 41 41 41 42 43 43 44 45 45 46 46 47 47 47 48 49 50 50 51 52 53 54 55 55 56 57 58 59 59 60 61
16 15 16 17 17 18 18 18 19 20 18 16 18 18 18 18 19 20 20 19 20 21 20 18 18 18 18 18 18 17 17 17 18 18 19 20 21 22 23 25 26 26 27 28 29 30 31 32 33 35 36 37 39 40 41 42 42 42 43 44 44 45 46 46 47 47 48 48 49 49 50 51 52 53 54 55 55 56 57 58 59 60 60 61 62 63
16 16 17 16 16 17 19 19 19 19 18 17 18 17 18 18 18 19 19 18 19 20 18 17 17 17 17 18 18 17 18 18 19 20 20 20 21 22 24 25 27 27 28 29 30 31 32 34 35 36 38 39 40 41 42 42 43 43 44 45 45 46 47 47 48 49 49 50 50 51 52 52 53 54 56 56 57 58 59 60 61 61 62 63 64 64
17 17 16 16 16 17 18 18 17 17 18 17 16 17 18 17 16 17 18 18 19 19 19 17 17 17 17 18 18 18 19 19 20 20 20 21 22 23 25 27 28 28 29 30 31 32 34 35 36 38 39 40 41 42 43 43 43 44 45 46 47 48 48 49 49 50 50 51 51 52 53 54 55 56 57 58 59 60 60 61 62 62 63 64 64 65
17 17 15 15 18 18 17 16 15 15 16 15 15 18 18 16 17 17 17 18 19 20 19 17 17 17 17 17 18 20 20 20 20 20 21 23 24 25 27 28 29 30 30 32 33 34 35 36 38 39 40 41 42 43 44 44 44 45 46 47 48 49 49 50 50 51 52 52 52 54 55 56 57 58 59 59 60 60 61 62 62 63 64 64 65 65
16 16 15 16 17 17 16 16 15 15 16 15 16 18 17 16 17 18 17 17 18 19 20 19 18 17 17 18 19 19 19 19 20 21 22 24 26 26 28 30 31 31 32 33 34 36 36 38 39 40 41 42 44 44 45 45 45 46 47 48 49 50 50 51 51 52 52 53 54 55 56 57 58 59 59 60 60 61 61 62 63 63 64 64 65 65
16 15 16 17 17 16 16 16 16 16 17 18 18 18 18 17 17 17 17 16 17 19 19 20 20 17 17 19 18 18 19 19 21 22 24 25 27 28 30 32 32 33 34 35 36 37 38 39 41 41 42 43 44 45 45 46 46 47 48 49 50 50 51 52 52 53 53 54 55 56 57 58 59 59 60 60 61 61 61 62 62 63 64 64 64 65
16 15 17 19 18 16 15 16 16 16 17 19 19 19 19 19 18 18 17 16 17 19 19 20 21 18 18 19 18 18 20 20 22 24 26 28 29 30 32 33 33 33 35 36 37 38 39 40 41 42 43 44 45 45 46 46 46 47 49 49 50 51 52 53 53 54 54 55 56 57 58 58 59 59 60 60 60 61 61 62 62 63 63 63 64 64
16 15 17 18 17 16 15 15 16 16 17 18 18 19 19 19 18 19 19 18 18 19 18 19 20 18 18 19 20 21 21 22 24 26 28 30 31 32 33 34 34 35 36 37 38 39 39 40 42 43 43 44 45 45 46 46 47 48 49 50 51 52 53 54 54 54 55 56 56 57 58 58 59 59 59 60 60 60 61 61 62 62 62 62 63 63
15 15 17 16 15 14 14 14 15 16 17 18 19 20 20 19 18 18 19 19 19 18 18 19 19 18 18 20 22 22 23 25 26 28 29 31 31 32 34 35 35 36 37 37 38 39 40 41 43 43 44 44 45 46 46 47 48 49 50 51 52 52 53 54 54 54 55 55 56 57 58 58 58 58 59 59 59 60 60 60 60 60 61 61 62 62
15 16 17 16 15 15 15 15 16 17 19 20 20 21 20 19 19 18 18 18 18 17 18 20 20 19 19 21 23 24 25 27 28 29 30 31 33 34 36 36 36 37 37 38 39 40 41 42 43 43 44 45 45 46 47 47 49 50 51 51 52 53 53 53 53 54 54 55 56 57 57 57 57 57 58 58 58 58 58 58 59 59 60 60 61 61
15 16 17 17 17 17 18 18 19 21 22 21 21 22 21 20 19 19 18 18 17 18 20 20 21 22 22 23 25 26 28 29 29 30 32 33 35 36 37 36 37 37 38 39 39 40 42 43 43 43 44 45 46 46 47 48 49 50 51 52 52 53 53 52 53 53 54 55 56 56 56 56 55 55 56 56 56 57 57 58 58 59 59 60 61 61
15 17 18 18 17 18 19 20 21 22 23 22 23 23 23 21 20 19 18 17 18 21 21 19 21 25 26 25 26 28 29 29 30 32 34 35 36 37 37 37 37 38 38 39 40 41 42 43 43 44 45 45 46 47 48 49 50 50 51 52 52 51 51 52 52 52 53 53 54 54 54 54 54 54 55 55 56 57 58 58 59 59 60 60 61 61
16 18 19 18 18 18 19 20 21 22 23 22 23 23 23 22 21 19 18 18 20 21 21 20 23 28 28 26 27 28 28 30 32 34 36 36 37 37 37 37 38 38 38 39 40 42 43 43 44 45 46 46 47 48 48 48 49 49 50 50 50 50 50 50 50 51 52 52 52 53 53 53 54 55 55 56 57 58 58 58 59 59 60 60 60 59
17 18 18 18 18 18 19 20 21 22 22 22 23 23 23 23 21 20 18 19 20 21 23 25 27 29 29 27 26 28 29 31 34 35 36 37 38 38 37 38 38 38 39 40 41 42 43 44 44 45 46 46 46 46 46 46 47 47 48 48 48 48 49 49 49 50 51 51 52 52 53 54 54 55 56 57 57 58 58 58 58 58 58 58 58 58
18 18 19 19 19 18 20 21 21 21 21 22 23 23 23 22 21 21 20 21 22 23 26 28 29 30 28 26 27 29 31 33 35 36 37 38 39 38 37 38 38 39 40 41 42 43 43 43 44 44 44 45 44 44 44 45 45 46 47 47 47 47 47 48 49 50 51 52 53 53 54 55 55 55 56 56 57 57 57 57 56 56 56 56 55 55
20 20 19 19 19 19 20 22 22 22 21 21 22 23 24 23 21 22 22 23 24 26 27 28 30 29 27 26 29 31 33 35 36 37 38 39 39 38 38 38 38 39 40 40 41 42 41 42 42 42 43 43 42 43 43 44 45 46 46 46 46 47 48 49 50 50 51 53 53 54 55 55 55 55 56 56 56 55 55 55 54 54 54 53 53 53
21 20 20 20 21 21 21 22 23 22 21 20 22 24 25 24 23 23 24 24 26 28 29 29 29 29 27 29 32 34 35 37 38 38 39 39 38 38 37 37 38 38 39 40 40 40 40 41 41 41 41 41 41 42 43 44 45 45 46 46 47 48 49 50 51 52 52 53 53 54 54 54 54 54 54 54 54 53 53 52 52 52 52 51 50 50
21 21 21 22 22 22 23 24 23 21 20 21 22 24 25 25 25 25 25 26 27 28 28 29 29 29 30 32 34 35 37 38 38 38 39 39 38 36 36 37 37 38 39 40 40 39 39 40 40 40 40 40 41 42 43 44 45 45 46 47 48 49 50 51 51 52 52 53 53 53 53 53 53 52 52 52 51 51 50 50 50 50 49 49 48 47
21 21 22 22 23 23 25 25 22 20 21 23 23 24 25 26 27 27 27 29 29 27 27 28 29 30 32 34 35 37 39 39 38 39 39 37 35 35 35 36 37 38 39 39 39 39 39 39 39 39 39 40 41 43 43 44 44 45 47 48 49 50 50 51 51 51 52 52 52 52 51 51 51 50 50 50 49 49 49 49 49 48 47 46 44 44
21 22 22 22 23 23 26 26 23 21 23 23 23 25 27 28 28 28 29 30 29 27 27 28 30 32 34 35 36 38 39 38 38 39 37 34 33 34 35 37 37 38 38 38 38 38 38 39 39 39 39 40 42 43 43 44 45 46 48 48 49 50 50 50 50 51 51 51 50 50 50 49 49 49 49 48 48 48 48 48 47 45 44 42 41 41
22 22 22 23 24 24 25 25 23 23 23 23 23 26 28 28 30 31 31 29 27 26 27 29 32 34 35 37 38 39 39 38 38 37 33 31 32 34 36 37 38 38 38 37 38 38 38 38 38 38 40 41 42 43 43 45 46 47 48 49 49 49 49 49 50 50 49 49 49 49 48 48 48 48 48 47 47 47 46 45 44 42 41 39 38 38
22 22 23 24 24 24 24 24 23 23 23 22 24 26 28 30 32 32 32 30 26 26 29 32 34 35 37 38 39 39 38 38 37 34 31 31 33 36 37 38 37 37 37 37 37 37 37 37 37 38 40 42 43 43 44 45 47 47 48 48 48 49 49 49 49 48 48 48 47 47 47 47 47 47 47 46 46 45 44 43 41 40 38 37 37 36
24 24 24 24 24 24 25 24 24 23 23 24 25 26 28 31 31 31 31 31 27 27 30 33 35 37 38 39 39 39 38 37 35 33 31 32 35 37 37 37 37 37 37 37 37 37 37 37 38 40 41 43 43 44 45 46 47 47 47 48 48 48 48 47 47 47 47 47 46 46 46 46 46 46 45 45 44 43 42 40 39 37 36 35 35 35
24 24 24 24 24 25 25 24 23 22 24 25 25 27 29 31 31 30 30 30 29 29 33 34 35 37 39 39 38 38 37 36 35 34 34 35 36 37 37 37 36 37 36 36 36 36 37 38 39 41 42 43 44 44 45 46 46 46 47 47 47 47 46 46 46 46 45 45 45 45 45 45 45 45 44 43 42 41 40 38 36 35 34 33 33 33
24 24 24 25 25 25 24 24 23 23 24 25 26 28 31 30 29 29 30 31 31 32 34 35 36 38 38 38 37 37 36 36 36 36 37 37 37 37 36 36 36 36 36 36 36 36 37 39 40 41 42 43 44 45 45 45 45 46 46 46 46 46 45 45 45 44 44 44 44 44 44 44 44 43 42 41 40 39 37 36 34 33 32 32 32 32
24 25 25 25 26 25 24 25 24 24 25 25 27 29 30 29 29 29 31 32 33 33 34 35 37 38 37 37 37 36 36 37 37 38 38 38 37 36 36 36 36 36 36 36 36 37 38 39 41 42 43 44 44 45 45 45 45 45 46 45 45 45 45 44 43 43 44 44 44 44 44 43 43 42 40 39 38 37 35 33 32 31 31 31 31 30
24 25 25 25 26 25 25 25 26 25 25 26 28 29 28 29 30 31 33 34 34 35 36 36 37 37 37 37 37 37 37 38 38 38 37 37 36 36 35 36 36 36 36 36 36 38 39 40 41 42 43 44 44 44 44 44 45 45 45 45 44 44 44 43 43 43 43 43 44 43 43 42 41 40 38 37 36 35 33 32 31 30 31 30 30 30
24 25 25 25 26 26 26 26 26 27 27 27 29 29 28 29 32 34 35 35 34 35 36 37 37 37 37 37 37 37 38 38 38 37 37 36 36 35 35 35 36 36 36 36 37 38 39 40 41 42 43 43 43 43 43 44 44 44 44 44 44 43 42 42 42 42 43 43 43 43 42 41 40 38 37 36 35 33 31 30 30 30 30 30 29 30
24 24 25 25 25 25 26 25 26 28 28 27 29 30 30 31 33 35 35 35 35 35 36 37 37 37 38 38 38 38 38 38 38 37 36 36 35 35 35 35 36 36 36 36 37 38 39 40 41 42 42 42 43 43 43 43 43 43 43 43 42 42 41 41 41 42 42 42 42 42 41 40 38 37 35 34 33 31 30 30 30 29 29 29 29 29
24 24 25 25 24 25 26 27 28 29 29 28 29 30 31 32 33 34 34 35 35 35 36 37 37 38 38 39 39 39 39 38 38 37 37 36 35 35 35 36 36 36 36 37 38 39 39 40 41 42 42 42 42 42 42 42 43 43 43 42 41 41 40 41 41 41 41 41 41 41 40 38 36 35 34 33 32 30 29 29 29 29 28 28 29 29
24 24 24 25 25 26 27 28 29 30 30 30 30 30 32 32 33 34 34 35 35 36 36 37 38 38 39 39 40 39 39 38 38 38 37 36 36 36 36 36 36 36 37 37 38 39 40 41 41 41 41 42 42 41 41 42 42 42 42 41 40 40 40 40 41 41 41 41 41 41 39 37 35 34 33 32 30 29 28 28 28 28 28 28 28 29
24 23 24 25 26 27 28 27 27 29 30 30 31 31 31 32 33 33 34 35 36 36 37 37 38 38 39 39 40 39 39 38 38 38 37 37 36 36 36 36 36 36 37 38 38 39 40 40 40 41 41 41 41 41 41 41 41 41 41 40 39 39 39 40 40 40 40 40 41 40 38 35 33 32 31 30 29 28 27 27 28 28 28 28 28 28
24 24 25 25 25 27 28 29 29 31 31 31 31 31 31 32 33 33 35 36 36 36 36 37 38 38 39 40 40 39 39 39 38 38 38 37 37 36 36 36 36 37 37 38 38 39 40 40 40 40 40 40 40 40 41 41 41 41 40 39 39 39 39 39 39 39 40 40 39 39 37 34 32 31 30 29 29 28 27 27 27 27 27 27 28 28
24 24 25 26 26 27 29 30 31 32 31 30 30 30 31 32 33 34 35 36 36 36 37 37 38 38 39 40 40 39 39 39 38 38 38 38 37 37 37 37 37 37 37 38 38 39 39 39 39 40 40 40 40 40 40 41 41 40 40 39 38 38 39 39 39 39 39 38 38 38 37 34 32 31 30 29 28 27 27 27 27 27 27 27 27 28
24 25 25 26 27 28 29 29 30 31 32 31 31 31 32 32 34 35 36 36 36 36 37 37 38 38 39 39 39 39 39 39 38 38 38 38 37 37 37 37 37 37 38 38 38 38 39 39 39 39 40 40 40 40 40 40 40 40 39 38 38 38 38 39 38 38 37 37 37 37 36 34 31 30 29 28 27 27 27 27 27 27 27 28 28 28
24 25 24 25 27 28 30 31 30 31 32 33 32 32 32 33 34 35 36 36 37 37 37 37 38 38 39 39 39 38 38 39 39 38 38 38 38 38 37 37 37 38 38 38 38 38 38 38 39 39 39 39 39 40 40 40 40 40 39 38 38 38 38 38 37 36 36 36 36 36 36 34 31 30 28 27 27 27 27 27 27 27 27 28 28 29
Wind_Direction
292 288 287 288 289 289 287 285 285 287 285 283 282 280 279 278 279 279 276 277 280 280 279 274 270 270 271 272 272 273 274 275 275 275 275 275 275 275 275 276 277 278 278 278 279 280 280 280 280 280 280 281 282 283 283 283 284 284 284 284 283 284 284 283 282 282 282 282 282 281 280 280 279 278 278 278 278 279 279 279 279 280 280 280 280 279
291 289 291 293 293 291 289 288 287 286 284 282 281 280 279 277 279 281 277 277 278 276 274 271 271 273 272 272 272 273 274 276 276 274 274 274 274 274 275 276 276 276 277 277 279 280 280 281 281 281 281 282 284 284 285 285 285 286 285 285 284 284 285 284 284 283 282 282 282 281 280 280 278 278 278 277 278 279 279 279 279 280 280 280 280 280
292 292 296 297 293 290 290 288 285 285 283 282 282 281 280 279 279 281 280 280 278 275 271 268 271 274 272 272 273 274 275 276 276 275 274 274 273 274 275 276 275 276 277 278 279 280 281 282 282 283 283 284 285 285 286 286 286 286 286 286 285 285 284 284 285 284 283 283 283 281 280 280 279 278 279 279 279 279 280 280 280 281 281 281 281 281
296 297 299 297 292 290 291 290 286 285 284 282 283 282 281 279 277 279 280 281 281 276 269 268 272 273 271 271 273 275 274 274 275 275 275 275 275 276 276 276 276 276 278 278 280 281 282 283 284 285 285 285 285 285 285 286 286 286 287 287 286 285 285 285 285 285 284 284 283 282 282 281 280 280 280 280 280 281 281 281 282 282 282 282 282 282
299 301 299 296 294 293 292 291 289 288 287 285 282 283 283 280 279 281 278 278 283 277 268 269 274 272 268 268 269 271 271 271 273 273 274 275 275 275 276 276 277 277 278 279 280 282 282 283 284 285 285 286 286 286 287 287 287 287 287 288 287 286 286 286 286 287 286 284 284 283 283 282 282 281 281 281 282 282 282 282 283 283 283 283 282 282
302 302 299 296 296 296 294 293 293 291 290 288 286 286 286 282 280 279 273 272 278 275 267 267 275 275 268 266 266 267 268 269 271 271 273 274 274 275 276 276 277 278 279 280 281 282 283 284 284 285 286 287 287 288 287 287 287 288 288 288 288 287 287 287 288 288 287 285 284 284 283 283 283 283 283 283 283 283 283 283 283 283 282 282 282 281
302 301 298 299 297 296 295 295 296 294 291 291 290 290 287 283 278 272 270 272 276 279 271 265 274 279 272 266 264 265 267 268 270 271 272 273 274 275 276 276 276 277 278 279 281 282 283 284 285 286 287 288 289 289 288 288 288 289 289 290 290 289 288 289 289 289 288 286 285 285 284 284 284 283 283 283 283 283 283 283 283 282 282 282 282 282
303 303 302 302 299 298 298 298 298 295 292 292 292 291 287 282 277 272 272 275 279 284 277 266 271 280 276 270 265 264 267 268 269 271 271 272 273 274 275 275 275 276 277 279 281 283 284 285 286 287 288 289 289 289 289 289 289 290 291 291 291 290 289 290 290 290 289 287 286 286 285 285 285 284 284 284 284 284 284 283 283 283 283 282 282 283
304 306 307 304 302 301 300 299 299 295 293 293 292 291 290 286 282 279 278 278 280 283 278 268 268 278 280 273 269 266 265 267 267 269 270 270 271 272 273 274 275 276 278 280 281 283 284 285 286 287 288 289 289 290 290 290 290 291 292 292 292 291 290 291 291 291 290 289 288 287 287 287 286 286 285 285 285 285 284 284 284 283 283 283 283 283
306 307 306 304 304 304 301 300 300 297 296 296 293 291 291 289 288 285 281 280 281 281 280 272 264 273 280 274 269 267 266 267 268 269 270 270 271 272 273 274 275 276 278 280 282 283 284 285 286 287 288 289 290 290 291 291 291 292 292 293 293 292 292 292 292 292 291 291 289 288 288 288 288 287 286 286 286 286 285 285 285 284 283 283 283 284
308 306 305 308 308 305 302 302 303 301 300 297 294 294 292 290 290 288 284 283 282 281 285 281 266 270 280 277 272 273 273 270 269 270 271 270 272 273 274 275 276 277 278 280 282 284 285 285 286 287 288 290 291 291 292 292 292 292 293 293 293 293 292 292 292 292 292 291 289 289 289 289 288 287 288 288 287 287 286 286 285 284 284 284 284 284
312 308 308 312 311 308 303 303 305 303 300 298 298 297 294 292 290 288 287 284 283 284 292 291 276 271 279 283 281 280 280 275 272 272 271 271 273 274 276 277 277 278 279 280 282 284 286 286 286 288 289 290 291 292 293 294 293 293 294 294 294 294 293 293 293 293 292 291 290 290 290 290 289 288 289 289 288 287 287 286 286 285 284 284 284 284
316 312 312 310 311 313 309 307 307 303 302 303 302 301 298 296 293 290 289 287 286 289 293 294 286 278 281 288 287 282 280 279 278 276 273 273 275 277 279 279 279 279 280 281 283 285 286 287 287 289 290 291 293 294 295 296 296 295 295 295 295 295 295 294 294 293 293 292 291 291 291 290 289 289 289 289 288 288 287 287 286 286 285 285 285 284
319 313 317 315 314 317 316 315 313 309 309 309 308 307 302 300 297 293 293 292 290 291 292 292 289 284 285 289 287 283 280 281 281 279 277 277 277 279 280 281 280 281 281 283 284 286 287 288 290 291 293 294 295 296 297 297 297 296 296 296 296 296 295 294 294 294 293 292 291 291 291 291 290 290 290 290 289 288 288 287 287 286 285 285 285 285
319 314 321 322 317 317 319 319 314 310 309 307 307 306 302 301 299 295 295 296 295 294 291 289 288 288 289 289 287 285 282 281 281 280 280 280 280 281 282 283 283 282 283 284 286 288 289 290 292 293 294 295 296 297 297 298 297 296 297 297 296 296 295 295 295 294 294 293 292 292 292 292 291 290 290 290 289 289 288 288 287 287 286 285 285 285
318 315 319 318 314 316 318 316 312 310 308 305 306 305 303 303 298 294 296 297 295 294 292 289 290 292 292 289 287 286 283 281 281 280 281 282 283 284 285 287 286 285 286 286 288 289 290 291 292 293 295 295 296 298 298 298 297 296 297 297 296 296 296 296 296 295 294 294 293 293 293 292 291 291 291 290 290 289 289 288 288 287 287 286 286 286
319 317 319 317 314 319 319 316 315 314 310 307 309 310 308 303 299 297 297 296 295 293 293 292 291 292 291 288 286 284 284 282 281 281 282 284 285 287 289 291 289 287 287 287 289 290 291 292 294 295 296 296 297 298 298 298 297 296 297 297 297 298 297 297 296 296 295 294 293 293 293 293 292 292 291 291 291 290 289 289 288 288 288 287 287 286
320 318 322 321 319 322 320 316 317 319 315 314 315 316 311 304 302 303 300 299 298 296 294 293 293 293 292 291 288 284 285 286 285 285 284 286 288 288 291 293 291 288 288 289 290 292 293 294 295 296 297 297 298 299 299 298 297 298 298 298 298 298 298 297 297 296 296 295 294 294 294 294 293 293 293 292 291 291 290 290 290 289 289 288 288 287
323 320 324 325 323 324 323 319 320 324 324 322 318 317 315 309 306 308 305 303 302 299 298 296 296 296 295 294 290 286 286 288 290 288 288 291 292 291 294 296 293 291 291 292 293 294 295 296 297 297 297 298 299 299 300 299 298 299 299 299 299 299 298 298 298 297 297 296 295 295 295 295 295 294 294 293 293 292 291 291 291 290 290 289 289 288
328 325 327 328 327 326 327 329 329 329 328 324 320 321 321 313 308 310 307 304 302 301 301 300 299 299 300 299 293 289 290 292 293 293 293 296 296 294 296 297 295 294 293 294 295 295 296 297 298 298 298 299 300 300 300 300 299 299 300 300 300 300 300 299 299 298 297 296 296 296 296 296 296 295 295 294 294 293 292 292 291 291 290 290 289 289
332 329 328 331 334 331 333 336 333 331 330 328 326 327 326 319 314 311 306 304 304 302 302 302 300 301 303 303 299 296 297 298 298 297 298 299 298 297 298 298 297 296 295 297 297 297 297 299 300 300 299 300 301 300 301 300 300 300 300 301 301 301 300 300 300 299 298 297 297 297 297 297 297 296 296 295 295 294 293 293 292 292 291 291 290 289
337 334 331 333 338 339 339 337 332 333 336 334 330 328 325 322 318 312 308 309 308 305 303 302 300 301 304 305 305 303 302 301 301 300 299 300 300 299 300 300 298 298 298 299 299 299 300 300 301 301 300 301 301 301 301 301 300 301 301 301 301 301 301 301 300 299 299 298 298 298 298 298 298 297 296 296 295 295 294 294 293 293 292 291 291 290
342 340 339 339 342 344 344 341 337 338 340 339 337 332 326 324 322 316 313 313 311 308 305 302 300 302 304 306 308 307 305 303 303 303 302 302 302 302 302 302 300 300 301 301 301 301 301 301 302 301 301 301 302 302 302 301 301 302 302 302 302 302 302 301 301 300 300 300 299 299 299 299 298 297 297 297 296 295 295 294 294 293 292 292 291 291
352 352 350 350 351 352 352 349 343 340 339 340 341 338 332 328 324 319 315 314 313 313 312 307 305 306 305 306 309 309 307 305 305 305 305 304 304 304 304 303 302 302 302 303 303 302 302 302 303 302 302 302 302 302 303 303 303 303 303 303 303 303 303 302 302 301 300 300 300 300 300 299 299 298 298 297 297 296 296 295 294 294 293 293 292 291
5 4 359 357 357 357 356 354 350 346 345 344 342 341 338 332 325 321 318 315 314 316 317 311 308 310 308 307 308 309 308 307 306 307 307 306 305 305 305 304 304 303 303 303 303 303 304 304 304 304 303 303 303 303 303 303 304 304 304 304 304 304 303 302 302 301 301 301 301 301 301 300 299 299 298 298 298 297 297 296 295 295 295 294 293 292
10 8 5 4 1 357 354 352 350 347 345 346 345 344 342 336 330 325 321 318 317 318 316 311 309 312 310 307 307 309 309 309 308 308 308 307 306 307 307 306 305 305 304 304 304 305 305 305 305 304 304 304 304 304 304 304 305 305 305 305 305 304 304 303 302 302 302 302 302 302 302 301 301 300 300 299 299 298 298 297 297 296 296 295 295 294
12 10 8 6 360 355 352 351 350 347 344 345 346 345 343 339 333 329 325 321 320 317 314 312 312 313 311 308 308 309 310 310 309 309 309 308 308 308 308 306 306 305 305 305 305 305 306 305 305 305 305 305 305 305 305 305 306 306 306 305 305 305 304 304 304 303 303 304 304 304 303 302 302 302 301 301 300 300 299 298 298 297 297 296 296 295
9 8 7 2 356 354 353 351 350 349 347 347 347 346 345 342 338 335 332 327 323 319 316 316 315 314 314 313 312 312 312 311 311 311 310 310 309 309 308 307 306 305 305 306 306 306 306 306 306 306 306 306 306 306 306 306 306 306 306 306 306 306 306 306 306 306 306 306 305 305 304 304 303 303 303 302 301 301 300 299 299 298 298 297 297 296
6 5 4 0 355 354 353 351 349 349 349 349 348 347 346 344 342 340 335 330 328 322 318 318 317 315 315 315 314 314 313 312 312 312 311 310 310 309 308 307 307 306 307 307 307 308 308 308 308 308 308 308 308 308 308 307 308 308 308 308 308 308 308 308 308 308 308 307 306 306 306 305 305 304 304 303 302 302 301 301 300 299 299 298 297 297
4 3 3 359 354 353 354 352 350 348 348 349 350 350 348 345 343 340 334 330 328 322 318 318 317 316 317 317 316 316 315 314 314 313 312 311 311 310 309 309 308 308 309 309 310 310 310 309 309 309 309 310 309 309 309 309 310 310 310 310 310 310 310 310 309 309 309 308 308 308 307 307 306 306 305 305 304 303 303 302 302 301 300 300 299 298
2 3 2 358 354 354 355 353 350 348 347 348 350 351 349 345 342 339 335 332 328 324 322 321 319 318 321 321 318 317 317 316 315 314 313 313 312 311 311 310 310 311 311 312 312 312 311 311 311 311 311 311 311 312 312 312 312 313 313 313 312 312 312 312 311 310 310 310 310 309 309 309 308 307 307 306 306 305 304 304 303 303 302 301 301 300
3 2 1 358 355 355 355 353 350 348 348 349 350 350 349 346 342 339 335 332 330 327 325 324 322 323 325 323 321 320 319 318 317 316 315 315 314 313 312 312 313 313 314 314 314 314 313 313 313 313 313 314 314 314 315 315 315 315 315 315 314 314 314 313 313 312 312 312 311 311 311 310 310 309 308 308 307 307 306 306 305 304 303 303 302 301
3 1 360 358 355 355 354 352 349 349 349 350 350 349 347 345 341 338 334 331 330 329 328 327 327 327 327 324 323 322 321 320 319 318 317 317 316 315 315 315 315 316 316 316 316 315 315 315 315 315 315 316 316 316 317 317 316 316 316 316 316 316 315 315 315 314 314 313 313 313 312 312 311 310 310 309 309 308 308 307 306 306 305 304 303 302
3 1 360 358 355 353 352 350 350 350 350 350 351 350 347 343 341 338 334 332 331 330 329 329 329 329 327 326 325 324 322 321 320 319 319 318 317 317 317 318 318 318 318 318 317 316 316 316 317 317 317 318 318 318 318 318 318 318 318 318 318 317 317 316 316 316 315 315 315 314 314 313 313 312 312 311 311 310 310 309 308 307 306 305 305 304
2 1 359 357 354 352 351 352 352 353 352 350 350 349 346 343 340 337 332 331 331 332 331 330 330 329 329 328 326 324 323 323 321 320 319 320 319 319 320 320 320 320 319 319 318 318 318 318 318 319 319 319 320 320 320 320 320 320 319 319 319 318 318 318 317 317 317 316 316 316 315 315 314 314 313 313 313 312 311 311 310 309 308 307 306 306
1 0 358 357 354 352 352 354 352 351 351 349 346 346 346 344 342 339 336 336 337 336 334 333 332 331 330 329 327 326 325 324 322 320 320 321 321 321 322 321 321 321 321 320 320 320 320 320 320 320 320 321 321 321 321 321 321 321 320 320 320 320 319 319 319 319 318 318 318 318 317 317 316 316 315 315 314 314 313 312 311 310 310 309 308 308
0 359 357 357 356 354 351 350 348 347 348 349 347 347 347 345 343 341 339 340 341 340 337 336 334 333 331 330 329 329 327 325 324 323 323 323 323 323 323 322 322 322 322 322 321 321 321 321 321 321 322 323 323 322 322 322 322 322 321 321 321 321 321 321 320 320 320 320 319 319 319 318 318 317 317 317 316 315 315 314 313 313 312 311 311 310
1 359 357 356 355 354 351 349 348 348 349 350 349 348 347 345 344 343 340 340 344 343 340 337 335 334 333 332 331 331 330 328 327 327 327 326 325 324 324 323 323 323 323 323 322 322 322 322 322 323 323 324 324 324 323 323 323 323 323 323 323 322 322 322 322 322 321 321 321 321 320 320 320 319 319 318 317 317 317 316 315 315 314 313 313 313
0 358 357 356 355 354 352 350 349 348 348 350 349 347 346 345 345 344 342 343 345 343 340 338 336 335 335 334 333 333 332 330 330 329 329 327 326 325 325 324 325 324 324 324 324 323 323 323 323 324 324 324 325 325 325 324 324 324 324 324 324 324 324 324 323 323 323 323 323 322 322 322 321 321 320 320 319 319 319 318 317 316 316 316 316 316
358 355 355 356 355 354 352 351 348 346 347 349 348 346 346 347 346 345 344 345 345 341 339 339 337 337 337 336 335 334 333 331 330 329 328 327 326 325 325 325 325 325 325 325 325 325 324 324 325 325 325 326 325 326 326 326 325 325 325 325 325 325 325 325 325 325 324 324 324 324 324 323 323 322 322 322 321 321 321 320 319 318 318 318 319 319
355 354 354 355 354 353 351 349 347 346 348 349 347 346 347 348 347 345 344 344 343 341 341 340 339 338 338 337 336 335 333 331 330 328 327 327 326 326 326 326 326 326 326 326 326 326 326 326 326 326 326 326 326 327 327 327 327 327 327 327 327 327 327 326 326 326 326 326 326 326 325 325 324 324 324 324 324 323 323 322 321 320 320 321 321 321
353 353 352 352 352 352 350 348 346 347 349 349 347 346 347 346 345 345 344 343 342 341 341 341 340 340 339 338 336 335 333 332 331 329 329 328 327 326 326 326 326 326 326 326 326 327 327 327 327 327 327 327 328 328 328 328 328 328 328 328 328 328 328 328 328 328 328 328 328 328 327 327 326 326 326 326 326 325 325 325 324 323 323 323 324 323
352 351 350 350 351 350 350 349 348 348 349 348 347 346 346 345 344 344 343 342 342 341 341 341 341 341 340 339 337 336 334 333 332 332 331 329 328 328 327 327 327 327 327 327 327 327 328 327 327 328 328 329 329 329 329 329 329 329 329 329 329 329 329 329 329 329 329 329 330 330 329 328 328 328 328 328 328 327 327 327 326 326 326 326 326 326
351 350 349 349 350 349 349 348 348 348 348 347 345 344 344 343 343 343 342 341 342 342 342 341 341 341 341 340 338 337 336 335 335 334 333 331 330 329 328 328 328 328 328 328 328 328 328 328 328 328 329 330 330 330 330 331 330 330 330 330 330 331 331 330 331 331 331 331 331 331 331 330 330 330 330 330 330 330 329 329 329 329 329 329 329 329
349 349 348 347 347 347 345 343 343 345 345 344 342 342 342 341 342 342 341 341 341 341 342 342 341 342 341 341 340 339 338 337 337 336 335 333 332 331 330 330 329 329 329 329 329 329 330 329 329 330 330 331 331 331 332 332 332 331 331 332 332 332 332 332 332 332 332 333 333 333 333 332 331 332 332 332 332 332 331 332 332 332 332 332 332 331
348 349 349 347 346 344 341 339 339 340 342 342 341 341 341 341 342 342 341 341 341 342 341 341 341 342 342 341 341 340 339 339 338 337 336 335 334 333 332 331 331 330 330 330 330 331 331 331 331 331 331 332 332 333 333 333 333 333 333 333 333 333 333 333 333 334 334 335 335 335 334 333 333 333 333 334 334 334 334 334 335 335 335 335 334 332
347 347 346 345 346 345 344 344 344 342 342 342 342 341 341 341 342 342 342 341 342 342 341 341 341 342 342 342 341 341 340 340 339 339 337 336 335 334 333 332 332 332 331 331 331 332 332 332 332 332 332 333 333 334 334 334 334 334 334 334 334 335 335 335 335 335 336 336 336 337 336 335 334 334 335 335 335 336 336 337 337 337 337 336 335 334
347 346 344 343 344 343 341 342 343 341 340 340 341 341 342 342 342 342 342 342 342 342 342 342 342 342 342 342 342 342 341 341 341 340 339 337 336 335 335 334 333 333 332 332 332 333 333 333 333 333 333 334 334 335 335 335 335 335 335 335 336 336 336 336 336 336 337 337 338 338 338 337 336 335 336 336 336 338 338 338 339 339 339 338 336 335
347 346 344 343 342 340 339 340 342 341 341 342 342 342 342 342 342 342 342 343 343 343 342 342 342 342 342 343 343 343 342 342 342 341 340 339 338 337 336 336 335 334 333 333 334 334 334 334 334 334 334 334 335 336 336 336 336 337 337 336 337 337 337 337 337 337 338 338 339 340 340 339 337 336 336 336 337 339 340 340 340 341 341 340 339 336
345 343 344 344 342 342 342 344 345 344 343 344 344 342 342 342 342 342 342 343 343 343 343 342 342 342 343 343 343 343 343 343 343 342 341 340 339 338 338 337 336 336 335 335 335 335 335 335 335 335 335 335 336 337 337 337 337 338 338 337 338 338 338 338 338 338 339 339 340 340 341 341 339 337 337 337 338 339 340 341 341 342 342 342 341 339
339 340 342 342 340 340 341 343 344 343 342 343 344 343 342 342 342 342 342 343 343 343 343 343 342 343 343 343 344 344 343 343 343 343 342 342 341 340 339 338 338 337 337 336 336 336 336 336 336 336 336 337 337 338 338 338 338 339 339 338 338 338 339 339 339 339 339 340 340 341 342 342 340 338 337 337 338 339 340 341 342 343 344 344 343 342